Location: Bad Dürkheim
(49.4618°N, 8.1724°E)
Time: 20:55:37
(UTC+00:00)

SeaSat 1 - Pass Details

Date: 14 June 2025
Orbit: 738 x 740 km, 108.0° (Epoch: 16 July)

Event Time Altitude Azimuth Distance (km) Brightness Sun altitude
Exits shadow 21:57:57 - 105° (ESE) 2,543 4.9 -14.5°
Reaches altitude 10° 21:58:48 10° 101° (E) 2,248 4.6 -14.6°
Maximum altitude 22:02:51 27° 44° (NE) 1,406 4.1 -14.8°
Drops below altitude 10° 22:06:55 10° 348° (NNW) 2,259 6.3 -15.0°
Sets 22:09:28 0° 337° (NNW) 3,186 7.6 -15.2°
